Weather Roundup
Issued by NWS Chicago, IL

Home | Current Version | Previous Version | Text Only | Print | Product List | Glossary On
Versions: 1 2 3 4 5 6 7 8 9 10 11 12 13 14 15 16 17 18 19 20 21 22 23 24 25 26 27 28 29 30 31 32 33 34 35 36 37 38 39 40 41 42 43 44 45 46 47 48 49 50
000
NZUS59 KLOT 032108
HRRLOT

CHICAGO AREA WEATHER ROUNDUP
NATIONAL WEATHER SERVICE CHICAGO/ROMEOVILLE IL
400 PM CDT FRI JUL 03 2015

NOTE: "FAIR" INDICATES FEW OR NO CLOUDS BELOW 12,000 FEET WITH NO
SIGNIFICANT WEATHER AND/OR OBSTRUCTIONS TO VISIBILITY.

* THESE STATIONS ARE NOT UNDER NWS QUALITY CONTROL. THEY ALSO MAY NOT
  REPORT WEATHER SUCH AS PRECIPITATION OR FOG.

ILZ005-006-012>014-019>023-032200-
NORTHEAST ILLINOIS

CITY           SKY/WX    TMP DP  RH WIND       PRES   REMARKS
OHARE          PTSUNNY   76  54  46 NE7       29.93F
MIDWAY         PTSUNNY   76  54  46 E8        29.93F
AURORA         SUNNY     77  55  46 VRB3      29.94F
LANSING*       MOSUNNY   74  52  47 NE8       29.94S
JOLIET*        MOSUNNY   78  56  46 CALM      29.93F
WAUKEGAN       SUNNY     70  54  56 E8        29.94F
DUPAGE AIRPORT MOSUNNY   78  55  44 NW6       29.93F
WHEELING       SUNNY     75  53  46 NE7       29.95F
KANKAKEE*      MOSUNNY   76  56  50 NE5       29.93F
MORRIS*        SUNNY     76  53  44 CALM      29.92F
LEWIS AIRPORT* SUNNY     77  53  43 CALM      29.93S
NORTHERLY IS     N/A     66  58  75 N7          N/A
$$

WIZ051-052-058>065-066-070>072-032200-
SOUTHEAST WISCONSIN

CITY           SKY/WX    TMP DP  RH WIND       PRES   REMARKS
MILWAUKEE      PTSUNNY   70  52  52 E10       29.95F
KENOSHA*       MOSUNNY   73  53  49 E8        29.95F
RACINE*        SUNNY     70  54  56 E8        29.96F
BURLINGTON     SUNNY     75  55  48 CALM      29.94F
WAUKESHA       MOSUNNY   73  54  49 W6        29.95F
WEST BEND      MOSUNNY   73  50  43 SE6       29.94F
$$

INZ001>003-010>013-019-020-032200-
NORTHWEST INDIANA

CITY           SKY/WX    TMP DP  RH WIND       PRES   REMARKS
GARY*          PTSUNNY   72  59  64 N9        29.95F
MICHIGAN CITY* NOT AVBL
RENSSELAER*    NOT AVBL
VALPARAISO     MOSUNNY   75  59  57 N7        29.94F
$$

LMZ740>746-032200-
SOUTHERN LAKE MICHIGAN

STATION/POSITION TIME  SKY/WX   TEMP WIND        PRES    VSBY
                                AIR  DIR/SP/G
                 (UTC)          (F)  (DEG/KT/KT) (MB)    (MI)
HARRISON CRIB    2000            62   40/  7/  8   N/A
BURNHAM HARBOR   2100            66   10/  5/  8   N/A
CALUMET HARBOR   2000            68  350/  6/  8   N/A
BURNS HARBOR     2000            64   10/ 10/ 11 1014.9F
MICHIGAN CITY    2000            63  360/  9/ 11   N/A
$$

ABBREVIATIONS USED IN REMARKS
   TC - TEMPERATURE IN CELSIUS
  WCI - WIND CHILL INDEX
   HX - HEAT INDEX
  VSB - VISIBILITY
$$


USA.gov is the U.S. government's official web portal to all federal, state and local government web resources and services.